Location: Shades State Park
(39.9310°N, 87.0690°W)
Time: 09:31:56
(UTC-04:00)

ISS - Visible Passes

Search period start: 29 April 2017 00:00
Search period end: 09 May 2017 00:00
Orbit: 401 x 409 km, 51.6° (Epoch: 29 April)

Date Brightness Start Highest point End Pass type
(mag) Time Alt. Az. Time Alt. Az. Time Alt. Az.
03 May -1.2 05:53:45 10° SSE 05:55:39 15° SE 05:57:33 10° E visible
05 May -2.6 05:45:01 12° SSW 05:47:44 36° SE 05:50:46 10° ENE visible
06 May -1.8 04:55:04 17° SSE 04:55:47 19° SE 04:58:10 10° E visible
07 May -3.9 05:37:43 19° SW 05:39:54 86° NW 05:43:11 10° NE visible
08 May -3.3 04:47:36 45° SSE 04:47:50 46° SE 04:51:00 10° ENE visible
